N215DS KFLL-MYGF

Flight info

Callsign N215DS
Flight time N/A
Altitude 7000
Route FLL2 FEALX PADUS
Aircraft DA40/L-SDGRY/S

Departure

Time 2026-05-03 21:16
Airport Fort Lauderdale Hollywood International Airport (KFLL)

Arrival

Time N/A
Airport Grand Bahama International Airport (MYGF)
Time Latitude Longitude Altitude Speed Heading
2026-05-03 20:30 26.07319 -80.15701 15 ft 0 kts 130°
2026-05-03 20:47 26.07320 -80.15685 15 ft 9 kts 50°
2026-05-03 20:47 26.07404 -80.15677 15 ft 17 kts 319°
2026-05-03 20:48 26.07492 -80.15790 14 ft 20 kts 283°
2026-05-03 20:48 26.07494 -80.15958 18 ft 23 kts 271°
2026-05-03 20:48 26.07497 -80.16135 20 ft 24 kts 270°
2026-05-03 20:48 26.07496 -80.16289 19 ft 11 kts 270°
2026-05-03 20:49 26.07496 -80.16297 19 ft 0 kts 271°
2026-05-03 20:51 26.07496 -80.16303 19 ft 6 kts 271°
2026-05-03 20:51 26.07496 -80.16347 18 ft 0 kts 270°
2026-05-03 20:52 26.07497 -80.16347 18 ft 0 kts 276°
2026-05-03 20:53 26.07497 -80.16359 18 ft 7 kts 270°
2026-05-03 20:53 26.07497 -80.16362 18 ft 0 kts 269°
2026-05-03 20:54 26.07496 -80.16392 18 ft 10 kts 269°
2026-05-03 20:54 26.07496 -80.16424 19 ft 0 kts 270°
2026-05-03 20:58 26.07496 -80.16430 19 ft 2 kts 270°
2026-05-03 20:58 26.07496 -80.16432 19 ft 1 kts 270°
2026-05-03 20:58 26.07496 -80.16441 19 ft 0 kts 270°
2026-05-03 20:59 26.07496 -80.16470 19 ft 4 kts 269°
2026-05-03 20:59 26.07496 -80.16472 19 ft 0 kts 270°
2026-05-03 21:00 26.07496 -80.16476 19 ft 0 kts 270°
2026-05-03 21:01 26.07496 -80.16486 19 ft 0 kts 270°
2026-05-03 21:01 26.07496 -80.16563 19 ft 8 kts 269°
2026-05-03 21:02 26.07496 -80.16580 19 ft 0 kts 269°
2026-05-03 21:02 26.07496 -80.16581 19 ft 1 kts 269°
2026-05-03 21:02 26.07496 -80.16582 19 ft 0 kts 269°
2026-05-03 21:04 26.07501 -80.16614 18 ft 0 kts 295°
2026-05-03 21:07 26.07503 -80.16618 18 ft 0 kts 296°
2026-05-03 21:07 26.07506 -80.16624 18 ft 3 kts 304°
2026-05-03 21:07 26.07509 -80.16628 18 ft 1 kts 308°
2026-05-03 21:08 26.07524 -80.16639 18 ft 5 kts 339°
2026-05-03 21:08 26.07553 -80.16643 17 ft 0 kts 356°
2026-05-03 21:10 26.07554 -80.16643 17 ft 0 kts 358°
2026-05-03 21:12 26.07567 -80.16643 17 ft 7 kts
2026-05-03 21:12 26.07603 -80.16643 17 ft 0 kts
2026-05-03 21:14 26.07630 -80.16643 16 ft 13 kts
2026-05-03 21:14 26.07696 -80.16576 17 ft 15 kts 91°
2026-05-03 21:14 26.07695 -80.16520 18 ft 0 kts 92°
2026-05-03 21:15 26.07694 -80.16475 19 ft 29 kts 90°
2026-05-03 21:15 26.07685 -80.15999 66 ft 82 kts 85°
2026-05-03 21:16 26.07695 -80.15342 302 ft 88 kts 84°
2026-05-03 21:16 26.07715 -80.14659 546 ft 88 kts 88°
2026-05-03 21:16 26.07775 -80.13995 805 ft 88 kts 66°
2026-05-03 21:16 26.08072 -80.13359 1036 ft 97 kts 56°
2026-05-03 21:17 26.08451 -80.12673 1148 ft 114 kts 64°
2026-05-03 21:17 26.08623 -80.12100 1217 ft 120 kts 67°
2026-05-03 21:17 26.09226 -80.11020 1278 ft 122 kts 50°
2026-05-03 21:17 26.09596 -80.10232 1503 ft 112 kts 62°
2026-05-03 21:18 26.09942 -80.09481 1736 ft 106 kts 59°
2026-05-03 21:18 26.10282 -80.08768 1964 ft 102 kts 58°
2026-05-03 21:18 26.10609 -80.08081 2195 ft 98 kts 60°
2026-05-03 21:18 26.10931 -80.07405 2441 ft 100 kts 59°
2026-05-03 21:19 26.11284 -80.06658 2472 ft 112 kts 59°
2026-05-03 21:19 26.11643 -80.05883 2357 ft 115 kts 60°
2026-05-03 21:19 26.12011 -80.05096 2237 ft 114 kts 59°
2026-05-03 21:19 26.12372 -80.04323 2115 ft 112 kts 59°
2026-05-03 21:20 26.12735 -80.03549 2012 ft 116 kts 59°
2026-05-03 21:20 26.13107 -80.02752 2005 ft 114 kts 60°
2026-05-03 21:20 26.13464 -80.01984 1997 ft 109 kts 60°
2026-05-03 21:20 26.13696 -80.01486 1997 ft 112 kts 59°